Location: Faicchio
(41.2833°N, 14.4833°E)
Time: 07:09:54
(UTC+00:00)

S3M - Pass Details

Date: 15 June 2025
Orbit: 949 x 1002 km, 83.0° (Epoch: 16 July)

Event Time Altitude Azimuth Distance (km) Brightness Sun altitude
Rises 02:18:15 0° 351° (N) 3,730 7.6 -11.1°
Reaches altitude 10° 02:20:47 10° 351° (N) 2,780 6.9 -10.8°
Maximum altitude 02:27:11 83° 265° (W) 1,015 4.1 -9.9°
Drops below altitude 10° 02:33:33 10° 178° (S) 2,762 6.0 -9.0°
Sets 02:36:04 0° 177° (S) 3,704 6.7 -8.7°
